User: anonymous   Login
Location: Caltech
(34.1382°N, 118.1253°W)
Time: 18:12:07
(UTC-07:00)
Language:

Cosmos 1980 Rocket - Orbit

View from above orbital plane
View from above orbital plane
View from above satellite
View from above satellite

Ground track
Ground track

The orbit data is extracted from the following two-line orbital elements,

1 19650U 88102B   15247.21276581  .00000175  00000-0  11344-3 0  9990
2 19650  71.0000 305.9783 0012012  95.5097 264.7396 14.15723022383713
Epoch (UTC): 04 September 2015 05:06:22
Eccentricity: 0.0012012
inclination: 71.0000°
perigee height: 831 km
apogee height: 848 km
right ascension of ascending node: 305.9783°
argument of perigee: 95.5097°
revolutions per day: 14.15723022
mean anomaly at epoch: 264.7396°
orbit number at epoch: 38371

The dashed part of the orbit path shows where the satellite is in the earth's shadow,  

DLR